Location: Plum
(40.5000°N, 79.7500°W)
Time: 09:52:05
(UTC-05:00)

MOZ.5/SAFIR/RUBIN 5/SL-8 - Visible Passes

Search period start: 24 November 2014 00:00
Search period end: 04 December 2014 00:00
Orbit: 681 x 708 km, 97.8° (Epoch: 23 November)

Date Brightness Start Highest point End Pass type
(mag) Time Alt. Az. Time Alt. Az. Time Alt. Az.
24 Nov 6.8 03:59:15 10° ENE 04:00:21 11° ENE 04:01:26 10° NE visible
24 Nov 3.7 05:32:27 10° SSE 05:37:12 87° WSW 05:42:01 10° NNW visible
24 Nov 4.8 17:31:43 10° NE 17:35:40 25° E 17:39:33 10° SSE visible
24 Nov 5.5 19:09:04 10° N 19:13:17 32° WNW 19:17:27 10° SW visible
25 Nov 5.9 04:36:13 10° ESE 04:40:06 26° ENE 04:44:01 10° NNE visible
25 Nov 4.5 06:13:16 10° SSW 06:17:33 33° W 06:21:53 10° NNW visible
25 Nov 3.7 18:11:20 10° NNE 18:16:05 67° E 18:20:45 10° S visible
25 Nov 6.7 19:50:46 10° NNW 19:53:06 14° WNW 19:55:26 10° W visible
26 Nov 4.2 05:15:25 10° SSE 05:20:07 64° ENE 05:24:51 10° N visible
26 Nov 4.7 18:51:42 10° N 18:56:15 47° WNW 19:00:45 10° SW visible
27 Nov 6.3 04:19:58 10° ESE 04:23:09 18° ENE 04:26:21 10° NNE visible
27 Nov 4.0 05:55:45 10° S 06:00:21 49° W 06:05:01 10° NNW visible
27 Nov 4.1 17:54:22 10° NNE 17:58:55 44° E 18:03:23 10° S visible
27 Nov 6.2 19:32:49 10° NNW 19:36:11 20° WNW 19:39:31 10° WSW visible
28 Nov 4.9 04:58:34 10° SE 05:03:03 43° ENE 05:07:35 10° N visible
28 Nov 5.2 06:37:25 10° SW 06:40:50 20° W 06:44:17 10° NW visible
28 Nov 4.0 18:34:27 10° N 18:39:11 71° WNW 18:43:51 10° SSW visible
29 Nov 6.7 04:04:14 10° E 04:06:14 13° ENE 04:08:15 10° NE visible
29 Nov 3.7 05:38:27 10° S 05:43:12 75° WSW 05:48:00 10° NNW visible
29 Nov 4.6 17:37:33 10° NE 17:41:42 30° E 17:45:47 10° SSE visible
29 Nov 5.7 19:15:12 10° N 19:19:12 28° WNW 19:23:10 10° SW visible
30 Nov 5.6 04:41:56 10° SE 04:46:02 30° ENE 04:50:10 10° N visible
30 Nov 4.7 06:19:29 10° SSW 06:23:35 29° W 06:27:43 10° NW visible
30 Nov 3.7 18:17:18 10° NNE 18:22:04 78° ESE 18:26:45 10° S visible
30 Nov 6.7 19:57:22 10° NW 19:58:59 12° WNW 20:00:36 10° W visible
01 Dec 3.9 05:21:20 10° SSE 05:26:05 75° ENE 05:30:43 11° N visible
01 Dec 5.1 17:20:57 10° NE 17:24:26 20° E 17:27:52 10° SE visible
01 Dec 5.0 18:57:46 10° N 19:02:11 40° WNW 19:06:33 10° SW visible
02 Dec 6.1 04:25:32 10° ESE 04:29:03 21° ENE 04:32:30 10° NNE visible
02 Dec 4.2 06:01:51 10° S 06:06:22 42° W 06:10:55 10° NNW visible
02 Dec 3.9 18:00:16 10° NNE 18:04:54 52° E 18:09:27 10° S visible
02 Dec 6.4 19:39:05 10° NNW 19:42:04 17° WNW 19:45:02 10° WSW visible
03 Dec 4.6 05:04:24 10° SSE 05:09:00 50° ENE 05:13:00 14° N visible
03 Dec 5.3 06:43:51 10° SW 06:46:53 17° W 06:49:56 10° NW visible
03 Dec 4.3 18:40:28 10° N 18:45:07 60° WNW 18:49:43 10° SSW visible
